When you browse on this site, cookies collect data to enhance your experience and personalize the content and advertising you see.
Visit our Privacy Policy to learn more. By continuing to use the site, you agree to this use of cookies and data.
  • In Hungary
  • List of Countries
  • For 7 days
  • Water Temperature
  • Weather Map
  • News
  • Weather Widgets
  • user-avatar
    Login

    Hourly Weather Jankowice

    Today, 18 September, Wednesday

    Time Temperature Precipitation Wind Pressure Humidity
    00:00 +6°C° 0 mm 7 mps 739 mmHg 80%
    01:00 +5°C° 0 mm 6 mps 740 mmHg 83%
    02:00 +5°C° 0 mm 7 mps 740 mmHg 80%
    03:00 +6°C° 0 mm 7 mps 740 mmHg 78%
    04:00 +6°C° 0 mm 8 mps 740 mmHg 76%
    05:00 +6°C° 0.1 mm 8 mps 740 mmHg 77%
    06:00 +6°C° 0.1 mm 9 mps 741 mmHg 78%
    07:00 +6°C° 0 mm 9 mps 742 mmHg 78%
    08:00 +7°C° 0 mm 9 mps 742 mmHg 73%
    09:00 +8°C° 0 mm 9 mps 743 mmHg 68%
    10:00 +9°C° 0 mm 10 mps 744 mmHg 64%
    11:00 +11°C° 0 mm 9 mps 744 mmHg 60%
    12:00 +11°C° 0 mm 9 mps 745 mmHg 57%
    13:00 +12°C° 0 mm 8 mps 745 mmHg 53%
    14:00 +12°C° 0.1 mm 8 mps 745 mmHg 54%
    15:00 +12°C° 0.1 mm 8 mps 745 mmHg 54%
    16:00 +12°C° 0.1 mm 7 mps 745 mmHg 55%
    17:00 +11°C° 0.1 mm 6 mps 746 mmHg 62%
    18:00 +9°C° 0.1 mm 5 mps 746 mmHg 68%
    19:00 +8°C° 0.1 mm 4 mps 746 mmHg 75%
    20:00 +7°C° 0 mm 4 mps 747 mmHg 76%
    21:00 +7°C° 0 mm 4 mps 747 mmHg 77%
    22:00 +7°C° 0 mm 5 mps 747 mmHg 77%
    23:00 +6°C° 0 mm 4 mps 747 mmHg 80%

    Tomorrow, 19 September, Thursday

    Time Temperature Precipitation Wind Pressure Humidity
    00:00 +6°C° 0 mm 4 mps 748 mmHg 82%
    01:00 +6°C° 0 mm 4 mps 748 mmHg 84%
    02:00 +6°C° 0.1 mm 4 mps 748 mmHg 86%
    03:00 +6°C° 0.1 mm 4 mps 748 mmHg 87%
    04:00 +5°C° 0.1 mm 4 mps 748 mmHg 89%
    05:00 +6°C° 0 mm 4 mps 748 mmHg 84%
    06:00 +7°C° 0 mm 4 mps 749 mmHg 79%
    07:00 +7°C° 0 mm 5 mps 749 mmHg 74%
    08:00 +9°C° 0 mm 5 mps 749 mmHg 67%
    09:00 +10°C° 0 mm 5 mps 749 mmHg 60%
    10:00 +12°C° 0 mm 5 mps 750 mmHg 53%
    11:00 +13°C° 0 mm 5 mps 749 mmHg 52%
    12:00 +14°C° 0 mm 5 mps 749 mmHg 50%
    13:00 +14°C° 0 mm 5 mps 749 mmHg 48%
    14:00 +14°C° 0.2 mm 5 mps 749 mmHg 52%
    15:00 +13°C° 0.2 mm 5 mps 749 mmHg 55%
    16:00 +13°C° 0.2 mm 5 mps 749 mmHg 59%
    17:00 +12°C° 0.3 mm 4 mps 749 mmHg 66%
    18:00 +10°C° 0.3 mm 3 mps 749 mmHg 72%
    19:00 +9°C° 0.3 mm 3 mps 749 mmHg 79%
    20:00 +9°C° 0 mm 3 mps 750 mmHg 81%
    21:00 +8°C° 0 mm 3 mps 750 mmHg 82%
    22:00 +6°C° 0 mm 4 mps 750 mmHg 84%
    23:00 +6°C° 0 mm 4 mps 750 mmHg 87%

    Day after tomorrow, 20 September, Friday

    Time Temperature Precipitation Wind Pressure Humidity
    00:00 +5°C° 0 mm 3 mps 750 mmHg 89%
    01:00 +5°C° 0 mm 3 mps 750 mmHg 92%
    02:00 +4°C° 0 mm 3 mps 751 mmHg 93%
    03:00 +4°C° 0 mm 3 mps 751 mmHg 94%
    04:00 +4°C° 0 mm 3 mps 751 mmHg 95%
    05:00 +5°C° 0 mm 3 mps 751 mmHg 90%
    06:00 +5°C° 0 mm 4 mps 751 mmHg 85%
    07:00 +6°C° 0 mm 4 mps 752 mmHg 80%
    08:00 +8°C° 0 mm 4 mps 752 mmHg 73%
    09:00 +10°C° 0 mm 4 mps 752 mmHg 66%
    10:00 +12°C° 0 mm 5 mps 752 mmHg 59%
    11:00 +13°C° 0 mm 5 mps 752 mmHg 54%
    12:00 +13°C° 0 mm 5 mps 752 mmHg 48%
    13:00 +14°C° 0 mm 5 mps 752 mmHg 43%
    14:00 +14°C° 0 mm 4 mps 752 mmHg 44%
    15:00 +13°C° 0 mm 4 mps 752 mmHg 45%
    16:00 +13°C° 0 mm 3 mps 752 mmHg 46%
    17:00 +12°C° 0 mm 3 mps 752 mmHg 52%
    18:00 +10°C° 0 mm 2 mps 752 mmHg 57%
    19:00 +9°C° 0 mm 2 mps 752 mmHg 63%
    20:00 +8°C° 0 mm 2 mps 752 mmHg 67%
    21:00 +8°C° 0 mm 2 mps 752 mmHg 72%
    22:00 +7°C° 0 mm 2 mps 752 mmHg 77%
    23:00 +7°C° 0 mm 2 mps 752 mmHg 78%

    21 September, Saturday

    Time Temperature Precipitation Wind Pressure Humidity
    00:00 +7°C° 0 mm 2 mps 752 mmHg 79%
    01:00 +7°C° 0 mm 2 mps 752 mmHg 81%
    02:00 +7°C° 0 mm 2 mps 752 mmHg 81%
    03:00 +6°C° 0 mm 2 mps 752 mmHg 81%
    04:00 +6°C° 0 mm 2 mps 752 mmHg 82%
    05:00 +7°C° 0 mm 2 mps 752 mmHg 79%
    06:00 +8°C° 0 mm 2 mps 752 mmHg 75%
    07:00 +8°C° 0 mm 2 mps 752 mmHg 72%
    08:00 +10°C° 0 mm 2 mps 752 mmHg 65%
    09:00 +12°C° 0 mm 3 mps 752 mmHg 57%
    10:00 +14°C° 0 mm 3 mps 752 mmHg 50%
    11:00 +16°C° 0 mm 3 mps 752 mmHg 47%
    12:00 +17°C° 0 mm 3 mps 751 mmHg 44%
    13:00 +18°C° 0 mm 3 mps 751 mmHg 41%
    14:00 +18°C° 0 mm 3 mps 750 mmHg 43%
    15:00 +18°C° 0 mm 3 mps 750 mmHg 45%
    16:00 +18°C° 0 mm 3 mps 750 mmHg 47%
    17:00 +16°C° 0 mm 2 mps 750 mmHg 52%
    18:00 +14°C° 0 mm 2 mps 750 mmHg 57%
    19:00 +12°C° 0 mm 2 mps 750 mmHg 62%
    20:00 +12°C° 0 mm 2 mps 750 mmHg 62%
    21:00 +10°C° 0 mm 2 mps 749 mmHg 63%
    22:00 +10°C° 0 mm 2 mps 749 mmHg 64%
    23:00 +9°C° 0 mm 2 mps 749 mmHg 64%

    22 September, Sunday

    Time Temperature Precipitation Wind Pressure Humidity
    00:00 +9°C° 0 mm 2 mps 749 mmHg 63%
    01:00 +9°C° 0 mm 2 mps 749 mmHg 63%
    02:00 +8°C° 0 mm 2 mps 749 mmHg 64%
    03:00 +9°C° 0 mm 1 mps 748 mmHg 65%
    04:00 +9°C° 0 mm 1 mps 748 mmHg 66%
    05:00 +10°C° 0 mm 1 mps 748 mmHg 64%
    06:00 +11°C° 0 mm 1 mps 748 mmHg 62%
    07:00 +12°C° 0 mm 1 mps 748 mmHg 61%
    08:00 +14°C° 0 mm 1 mps 748 mmHg 55%
    09:00 +16°C° 0 mm 2 mps 748 mmHg 49%
    10:00 +18°C° 0 mm 2 mps 748 mmHg 43%
    11:00 +19°C° 0 mm 2 mps 747 mmHg 40%
    12:00 +20°C° 0 mm 3 mps 747 mmHg 38%
    13:00 +21°C° 0 mm 3 mps 746 mmHg 35%
    14:00 +21°C° 0 mm 3 mps 746 mmHg 38%
    15:00 +20°C° 0 mm 3 mps 745 mmHg 41%
    16:00 +20°C° 0 mm 3 mps 745 mmHg 44%
    17:00 +18°C° 0 mm 3 mps 745 mmHg 48%
    18:00 +16°C° 0 mm 3 mps 744 mmHg 52%
    19:00 +13°C° 0 mm 3 mps 744 mmHg 56%
    20:00 +13°C° 0 mm 3 mps 744 mmHg 55%
    21:00 +13°C° 0 mm 4 mps 743 mmHg 54%
    22:00 +13°C° 0 mm 4 mps 743 mmHg 53%
    23:00 +12°C° 0 mm 4 mps 743 mmHg 52%

    23 September, Monday

    Time Temperature Precipitation Wind Pressure Humidity
    00:00 +12°C° 0 mm 4 mps 742 mmHg 51%
    01:00 +12°C° 0 mm 3 mps 742 mmHg 49%
    02:00 +12°C° 0 mm 3 mps 741 mmHg 48%
    03:00 +12°C° 0 mm 3 mps 740 mmHg 47%
    04:00 +12°C° 0 mm 3 mps 740 mmHg 45%
    05:00 +13°C° 0 mm 3 mps 739 mmHg 46%
    06:00 +13°C° 0 mm 3 mps 739 mmHg 47%
    07:00 +14°C° 0 mm 3 mps 739 mmHg 49%
    08:00 +17°C° 0 mm 3 mps 739 mmHg 46%
    09:00 +18°C° 0 mm 3 mps 738 mmHg 44%
    10:00 +20°C° 0 mm 2 mps 738 mmHg 41%
    11:00 +21°C° 0 mm 3 mps 738 mmHg 43%
    12:00 +22°C° 0 mm 3 mps 737 mmHg 45%
    13:00 +23°C° 0 mm 4 mps 737 mmHg 46%
    14:00 +23°C° 0 mm 4 mps 737 mmHg 48%
    15:00 +22°C° 0 mm 3 mps 737 mmHg 50%
    16:00 +21°C° 0 mm 3 mps 737 mmHg 53%
    17:00 +20°C° 0 mm 3 mps 737 mmHg 56%
    18:00 +18°C° 0 mm 3 mps 737 mmHg 60%
    19:00 +16°C° 0 mm 3 mps 737 mmHg 63%
    20:00 +16°C° 0 mm 3 mps 738 mmHg 68%
    21:00 +16°C° 0 mm 3 mps 738 mmHg 72%
    22:00 +14°C° 0 mm 4 mps 738 mmHg 77%
    23:00 +14°C° 0.1 mm 3 mps 738 mmHg 81%
    Show more